When you browse on this site, cookies collect data to enhance your experience and personalize the content and advertising you see.
Visit our Privacy Policy to learn more. By continuing to use the site, you agree to this use of cookies and data.
  • In Hungary
  • List of Countries
  • For 7 days
  • Water Temperature
  • Satellite Maps
  • Weather Map
  • News
  • Weather Widgets
  • user-avatar
    Login

    Hourly Weather Kocmyrzow

    Today, 26 April, Friday

    Time Temperature Precipitation Wind Pressure Humidity
    00:00 +15°C° 0 mm 2 mps 735 mmHg 76%
    01:00 +15°C° 0 mm 2 mps 735 mmHg 78%
    02:00 +14°C° 0 mm 2 mps 735 mmHg 79%
    03:00 +14°C° 0 mm 2 mps 734 mmHg 81%
    04:00 +13°C° 0 mm 2 mps 734 mmHg 82%
    05:00 +15°C° 0 mm 2 mps 734 mmHg 78%
    06:00 +16°C° 0 mm 3 mps 734 mmHg 73%
    07:00 +18°C° 0 mm 3 mps 734 mmHg 68%
    08:00 +20°C° 0 mm 3 mps 734 mmHg 59%
    09:00 +22°C° 0 mm 4 mps 734 mmHg 50%
    10:00 +25°C° 0 mm 4 mps 734 mmHg 41%
    11:00 +26°C° 0 mm 5 mps 733 mmHg 39%
    12:00 +27°C° 0 mm 5 mps 733 mmHg 37%
    13:00 +28°C° 0 mm 6 mps 733 mmHg 35%
    14:00 +28°C° 0 mm 5 mps 733 mmHg 36%
    15:00 +28°C° 0 mm 4 mps 732 mmHg 38%
    16:00 +28°C° 0 mm 4 mps 732 mmHg 40%
    17:00 +26°C° 0 mm 4 mps 732 mmHg 45%
    18:00 +24°C° 0 mm 3 mps 732 mmHg 50%
    19:00 +20°C° 0 mm 3 mps 732 mmHg 54%
    20:00 +19°C° 0 mm 3 mps 732 mmHg 58%
    21:00 +18°C° 0 mm 3 mps 732 mmHg 63%
    22:00 +17°C° 0 mm 2 mps 732 mmHg 67%
    23:00 +17°C° 0 mm 2 mps 732 mmHg 69%

    Tomorrow, 27 April, Saturday

    Time Temperature Precipitation Wind Pressure Humidity
    00:00 +16°C° 0 mm 2 mps 732 mmHg 71%
    01:00 +16°C° 0 mm 2 mps 732 mmHg 72%
    02:00 +16°C° 0 mm 3 mps 732 mmHg 74%
    03:00 +14°C° 0 mm 3 mps 732 mmHg 76%
    04:00 +14°C° 0 mm 3 mps 732 mmHg 77%
    05:00 +15°C° 0 mm 4 mps 732 mmHg 76%
    06:00 +15°C° 0 mm 4 mps 732 mmHg 76%
    07:00 +15°C° 0 mm 5 mps 732 mmHg 75%
    08:00 +16°C° 0 mm 5 mps 733 mmHg 71%
    09:00 +16°C° 0 mm 5 mps 733 mmHg 68%
    10:00 +17°C° 0 mm 5 mps 733 mmHg 65%
    11:00 +17°C° 0 mm 5 mps 733 mmHg 66%
    12:00 +16°C° 0 mm 5 mps 733 mmHg 67%
    13:00 +16°C° 0 mm 6 mps 733 mmHg 69%
    14:00 +15°C° 0 mm 6 mps 733 mmHg 68%
    15:00 +15°C° 0 mm 6 mps 733 mmHg 66%
    16:00 +15°C° 0 mm 6 mps 733 mmHg 65%
    17:00 +14°C° 0 mm 5 mps 734 mmHg 68%
    18:00 +13°C° 0 mm 3 mps 734 mmHg 70%
    19:00 +13°C° 0 mm 2 mps 734 mmHg 72%
    20:00 +13°C° 0.1 mm 2 mps 734 mmHg 74%
    21:00 +12°C° 0.1 mm 2 mps 734 mmHg 76%
    22:00 +12°C° 0.1 mm 2 mps 734 mmHg 79%
    23:00 +11°C° 0 mm 3 mps 734 mmHg 78%

    Day after tomorrow, 28 April, Sunday

    Time Temperature Precipitation Wind Pressure Humidity
    00:00 +11°C° 0 mm 3 mps 734 mmHg 76%
    01:00 +10°C° 0 mm 3 mps 735 mmHg 75%
    02:00 +10°C° 0.1 mm 3 mps 735 mmHg 75%
    03:00 +10°C° 0.1 mm 3 mps 735 mmHg 74%
    04:00 +10°C° 0.1 mm 4 mps 735 mmHg 74%
    05:00 +8°C° 0.6 mm 4 mps 735 mmHg 77%
    06:00 +9°C° 0.6 mm 3 mps 735 mmHg 80%
    07:00 +9°C° 0.6 mm 3 mps 735 mmHg 83%
    08:00 +8°C° 1.4 mm 4 mps 735 mmHg 84%
    09:00 +10°C° 1.4 mm 4 mps 736 mmHg 86%
    10:00 +10°C° 1.4 mm 4 mps 736 mmHg 87%
    11:00 +9°C° 0.9 mm 5 mps 736 mmHg 86%
    12:00 +9°C° 0.9 mm 5 mps 736 mmHg 85%
    13:00 +9°C° 0.9 mm 6 mps 736 mmHg 84%
    14:00 +9°C° 1 mm 5 mps 736 mmHg 85%
    15:00 +9°C° 1 mm 5 mps 735 mmHg 86%
    16:00 +9°C° 1 mm 5 mps 735 mmHg 86%
    17:00 +10°C° 1 mm 4 mps 735 mmHg 88%
    18:00 +8°C° 1 mm 4 mps 735 mmHg 90%
    19:00 +8°C° 1 mm 4 mps 736 mmHg 92%
    20:00 +8°C° 1.7 mm 4 mps 736 mmHg 92%
    21:00 +8°C° 1.7 mm 4 mps 736 mmHg 93%
    22:00 +8°C° 1.7 mm 5 mps 736 mmHg 93%
    23:00 +8°C° 1.4 mm 5 mps 735 mmHg 93%

    29 April, Monday

    Time Temperature Precipitation Wind Pressure Humidity
    00:00 +8°C° 1.4 mm 5 mps 735 mmHg 93%
    01:00 +8°C° 1.4 mm 5 mps 735 mmHg 93%
    02:00 +8°C° 0.8 mm 5 mps 735 mmHg 93%
    03:00 +9°C° 0.8 mm 5 mps 735 mmHg 93%
    04:00 +9°C° 0.8 mm 5 mps 734 mmHg 93%
    05:00 +9°C° 0.4 mm 5 mps 734 mmHg 92%
    06:00 +8°C° 0.4 mm 6 mps 734 mmHg 91%
    07:00 +8°C° 0.4 mm 6 mps 734 mmHg 89%
    08:00 +8°C° 0.5 mm 6 mps 734 mmHg 90%
    09:00 +9°C° 0.5 mm 5 mps 734 mmHg 90%
    10:00 +9°C° 0.5 mm 5 mps 734 mmHg 90%
    11:00 +9°C° 0.8 mm 5 mps 734 mmHg 90%
    12:00 +10°C° 0.8 mm 4 mps 734 mmHg 91%
    13:00 +8°C° 0.8 mm 4 mps 733 mmHg 92%
    14:00 +8°C° 0.8 mm 4 mps 733 mmHg 92%
    15:00 +8°C° 0.8 mm 4 mps 733 mmHg 93%
    16:00 +8°C° 0.8 mm 4 mps 733 mmHg 93%
    17:00 +8°C° 0.8 mm 4 mps 733 mmHg 94%
    18:00 +9°C° 0.8 mm 3 mps 733 mmHg 95%
    19:00 +9°C° 0.8 mm 3 mps 733 mmHg 96%
    20:00 +9°C° 0.8 mm 3 mps 733 mmHg 96%
    21:00 +9°C° 0.8 mm 3 mps 733 mmHg 96%
    22:00 +9°C° 0.8 mm 3 mps 733 mmHg 96%
    23:00 +9°C° 1.1 mm 3 mps 733 mmHg 96%

    30 April, Tuesday

    Time Temperature Precipitation Wind Pressure Humidity
    00:00 +8°C° 1.1 mm 3 mps 733 mmHg 96%
    01:00 +8°C° 1.1 mm 3 mps 732 mmHg 96%
    02:00 +7°C° 1.4 mm 4 mps 732 mmHg 96%
    03:00 +7°C° 1.4 mm 4 mps 732 mmHg 96%
    04:00 +7°C° 1.4 mm 4 mps 732 mmHg 96%
    05:00 +7°C° 1.6 mm 4 mps 732 mmHg 95%
    06:00 +6°C° 1.6 mm 4 mps 732 mmHg 95%
    07:00 +6°C° 1.6 mm 4 mps 732 mmHg 94%
    08:00 +6°C° 1.3 mm 4 mps 733 mmHg 93%
    09:00 +7°C° 1.3 mm 4 mps 733 mmHg 92%
    10:00 +7°C° 1.3 mm 4 mps 733 mmHg 91%
    11:00 +7°C° 0.4 mm 4 mps 733 mmHg 90%
    12:00 +9°C° 0.4 mm 3 mps 733 mmHg 88%
    13:00 +9°C° 0.4 mm 3 mps 733 mmHg 86%
    14:00 +10°C° 0.1 mm 2 mps 733 mmHg 85%
    15:00 +10°C° 0.1 mm 2 mps 733 mmHg 84%
    16:00 +10°C° 0.1 mm 2 mps 733 mmHg 83%
    17:00 +11°C° 0.1 mm 1 mps 733 mmHg 85%
    18:00 +10°C° 0.1 mm 1 mps 733 mmHg 86%
    19:00 +9°C° 0.1 mm 1 mps 733 mmHg 88%
    20:00 +9°C° 0 mm 1 mps 733 mmHg 87%
    21:00 +8°C° 0 mm 1 mps 734 mmHg 87%
    22:00 +8°C° 0 mm 1 mps 734 mmHg 86%
    23:00 +7°C° 0 mm 1 mps 733 mmHg 87%

    1 May, Wednesday

    Time Temperature Precipitation Wind Pressure Humidity
    00:00 +7°C° 0 mm 1 mps 733 mmHg 87%
    01:00 +6°C° 0 mm 1 mps 733 mmHg 88%
    02:00 +6°C° 0 mm 1 mps 733 mmHg 88%
    03:00 +5°C° 0 mm 1 mps 733 mmHg 89%
    04:00 +5°C° 0 mm 1 mps 733 mmHg 89%
    05:00 +6°C° 0 mm 1 mps 733 mmHg 85%
    06:00 +8°C° 0 mm 1 mps 733 mmHg 81%
    07:00 +9°C° 0 mm 1 mps 733 mmHg 77%
    08:00 +10°C° 0.1 mm 2 mps 733 mmHg 70%
    09:00 +12°C° 0.1 mm 2 mps 733 mmHg 63%
    10:00 +14°C° 0.1 mm 2 mps 733 mmHg 56%
    11:00 +14°C° 0.1 mm 2 mps 733 mmHg 55%
    12:00 +14°C° 0.1 mm 2 mps 733 mmHg 53%
    13:00 +15°C° 0.1 mm 2 mps 732 mmHg 51%
    14:00 +15°C° 0.1 mm 2 mps 732 mmHg 52%
    15:00 +15°C° 0.1 mm 2 mps 732 mmHg 53%
    16:00 +15°C° 0.1 mm 2 mps 732 mmHg 54%
    17:00 +13°C° 0 mm 2 mps 732 mmHg 59%
    18:00 +10°C° 0 mm 2 mps 732 mmHg 64%
    19:00 +10°C° 0 mm 1 mps 732 mmHg 68%
    20:00 +9°C° 0 mm 1 mps 732 mmHg 69%
    21:00 +8°C° 0 mm 1 mps 732 mmHg 70%
    22:00 +8°C° 0 mm 1 mps 732 mmHg 72%
    23:00 +8°C° 0 mm 1 mps 732 mmHg 72%
    Show more